Location: Erba
(45.8000°N, 9.2500°E)
Time: 11:49:25
(UTC+02:00)

ISS - Visible Passes

Search period start: 31 March 2023 00:00
Search period end: 10 April 2023 00:00
Orbit: 414 x 424 km, 51.6° (Epoch: 31 March)

Date Brightness Start Highest point End Pass type
(mag) Time Alt. Az. Time Alt. Az. Time Alt. Az.
31 Mar -3.8 20:33:09 10° WNW 20:36:31 86° NNE 20:39:25 13° ESE visible
31 Mar -1.2 22:10:48 10° W 22:12:23 15° WSW 22:12:23 15° WSW visible
01 Apr -2.0 21:22:53 10° W 21:25:40 25° SW 21:27:06 19° S visible
02 Apr -2.6 20:35:29 10° WNW 20:38:37 39° SW 20:41:45 10° SSE visible
04 Apr -1.1 20:39:28 10° W 20:41:30 15° SW 20:43:32 10° S visible
